TimeCST,TemperatureF,Dew PointF,Humidity,Sea Level PressureIn,VisibilityMPH,Wind Direction,Wind SpeedMPH,Gust SpeedMPH,PrecipitationIn,Events,Conditions,WindDirDegrees,DateUTC
12:58 AM,54.0,41.5,63,30.04,10.0,Variable,2.3,-,N/A,,Mostly Cloudy,0,2013-12-14 06:58:00
1:58 AM,56.5,44.1,63,30.02,10.0,Variable,1.2,-,N/A,,Mostly Cloudy,0,2013-12-14 07:58:00
2:47 AM,55.4,44.6,67,30.00,10.0,NE,2.3,-,N/A,,Light Drizzle,40,2013-12-14 08:47:00
2:58 AM,55.6,45.5,69,30.01,10.0,NNE,4.6,-,0.00,,Light Drizzle,30,2013-12-14 08:58:00
2:59 AM,55.4,46.4,72,30.01,10.0,NE,4.6,-,N/A,,Overcast,40,2013-12-14 08:59:00
3:58 AM,57.7,47.8,70,29.98,10.0,ESE,6.9,-,0.00,,Mostly Cloudy,120,2013-12-14 09:58:00
4:07 AM,59.0,48.2,67,29.97,10.0,ESE,8.1,-,N/A,Rain,Light Rain,120,2013-12-14 10:07:00
4:21 AM,57.2,48.2,72,29.96,10.0,ESE,9.2,-,N/A,,Mostly Cloudy,110,2013-12-14 10:21:00
4:46 AM,59.0,50.0,72,29.96,10.0,SE,5.8,-,N/A,,Mostly Cloudy,140,2013-12-14 10:46:00
4:51 AM,59.0,50.0,72,29.96,10.0,SE,8.1,-,N/A,,Mostly Cloudy,140,2013-12-14 10:51:00
4:58 AM,58.8,50.2,73,29.97,10.0,SE,6.9,-,0.00,,Scattered Clouds,140,2013-12-14 10:58:00
5:58 AM,59.2,51.6,76,29.96,10.0,SE,10.4,-,N/A,,Scattered Clouds,140,2013-12-14 11:58:00
6:58 AM,59.7,53.2,79,29.96,10.0,SE,8.1,-,N/A,,Mostly Cloudy,140,2013-12-14 12:58:00
7:08 AM,59.0,53.6,82,29.95,10.0,SSE,6.9,-,N/A,,Mostly Cloudy,150,2013-12-14 13:08:00
7:58 AM,61.7,55.2,79,29.95,10.0,SSE,5.8,-,N/A,,Mostly Cloudy,150,2013-12-14 13:58:00
8:23 AM,62.6,57.2,82,29.93,10.0,SSE,9.2,-,N/A,,Scattered Clouds,150,2013-12-14 14:23:00
8:33 AM,64.4,57.2,77,29.94,10.0,SSE,9.2,-,N/A,,Mostly Cloudy,160,2013-12-14 14:33:00
8:53 AM,64.4,57.2,77,29.94,10.0,SSE,9.2,-,N/A,,Mostly Cloudy,150,2013-12-14 14:53:00
8:58 AM,64.2,57.6,79,29.95,10.0,South,8.1,-,N/A,,Mostly Cloudy,170,2013-12-14 14:58:00
9:13 AM,66.2,59.0,78,29.94,10.0,SSE,9.2,-,N/A,,Mostly Cloudy,160,2013-12-14 15:13:00
9:23 AM,66.2,60.8,83,29.94,10.0,SSE,10.4,-,N/A,,Mostly Cloudy,160,2013-12-14 15:23:00
9:28 AM,66.2,60.8,83,29.94,10.0,South,9.2,-,N/A,,Mostly Cloudy,170,2013-12-14 15:28:00
9:58 AM,68.0,62.6,83,29.94,10.0,South,10.4,-,N/A,,Mostly Cloudy,170,2013-12-14 15:58:00
10:03 AM,68.0,62.6,83,29.93,10.0,SSE,10.4,-,N/A,,Mostly Cloudy,160,2013-12-14 16:03:00
10:18 AM,68.0,64.4,88,29.92,10.0,South,11.5,-,N/A,,Overcast,190,2013-12-14 16:18:00
10:58 AM,69.8,66.2,88,29.91,10.0,South,15.0,24.2,N/A,,Overcast,190,2013-12-14 16:58:00
11:28 AM,71.6,66.2,83,29.88,10.0,South,21.9,28.8,N/A,,Mostly Cloudy,180,2013-12-14 17:28:00
11:38 AM,73.4,64.4,73,29.87,10.0,South,21.9,31.1,N/A,,Mostly Cloudy,190,2013-12-14 17:38:00
11:58 AM,73.2,65.1,76,29.88,10.0,SSW,15.0,-,N/A,,Mostly Cloudy,210,2013-12-14 17:58:00
12:03 PM,73.4,64.4,73,29.87,10.0,SSW,17.3,21.9,N/A,,Scattered Clouds,210,2013-12-14 18:03:00
12:23 PM,73.4,64.4,73,29.86,10.0,South,15.0,-,N/A,,Mostly Cloudy,190,2013-12-14 18:23:00
12:58 PM,72.9,63.9,73,29.85,10.0,SW,15.0,-,N/A,,Mostly Cloudy,220,2013-12-14 18:58:00
1:08 PM,73.4,64.4,73,29.84,10.0,SW,15.0,21.9,N/A,,Mostly Cloudy,230,2013-12-14 19:08:00
1:28 PM,73.4,64.4,73,29.84,10.0,SW,16.1,-,N/A,,Scattered Clouds,230,2013-12-14 19:28:00
1:58 PM,73.8,63.5,70,29.85,10.0,WSW,15.0,17.3,N/A,,Partly Cloudy,240,2013-12-14 19:58:00
2:33 PM,73.4,64.4,73,29.84,10.0,SW,10.4,-,N/A,,Mostly Cloudy,230,2013-12-14 20:33:00
2:58 PM,72.9,64.4,75,29.86,10.0,SW,9.2,-,N/A,,Mostly Cloudy,230,2013-12-14 20:58:00
3:08 PM,73.4,64.4,73,29.85,10.0,SW,5.8,-,N/A,,Scattered Clouds,230,2013-12-14 21:08:00
3:58 PM,72.0,63.3,74,29.86,10.0,WSW,4.6,-,N/A,,Partly Cloudy,240,2013-12-14 21:58:00
4:58 PM,69.3,63.0,80,29.86,10.0,SW,3.5,-,N/A,,Scattered Clouds,220,2013-12-14 22:58:00
5:58 PM,67.1,62.6,85,29.87,10.0,SSW,5.8,-,N/A,,Mostly Cloudy,210,2013-12-14 23:58:00
6:58 PM,65.3,63.5,94,29.88,10.0,SSW,6.9,-,N/A,,Mostly Cloudy,210,2013-12-15 00:58:00
7:58 PM,66.2,62.6,88,29.90,10.0,West,4.6,-,N/A,,Mostly Cloudy,270,2013-12-15 01:58:00
8:23 PM,66.2,62.6,88,29.92,10.0,NW,9.2,-,N/A,,Mostly Cloudy,310,2013-12-15 02:23:00
8:28 PM,66.2,62.6,88,29.92,10.0,NW,6.9,-,N/A,,Mostly Cloudy,320,2013-12-15 02:28:00
8:58 PM,65.7,59.5,81,29.94,10.0,NNW,6.9,-,N/A,,Mostly Cloudy,330,2013-12-15 02:58:00
9:58 PM,64.9,52.5,64,29.96,10.0,NW,10.4,-,N/A,,Overcast,320,2013-12-15 03:58:00
10:56 PM,60.8,50.0,68,29.91,10.0,SW,2.3,-,N/A,Rain,Light Rain,230,2013-12-15 04:56:00
10:58 PM,60.8,50.0,68,29.92,10.0,WSW,1.2,-,N/A,Rain,Light Rain,250,2013-12-15 04:58:00
11:58 PM,58.6,52.3,80,29.93,10.0,West,4.6,-,0.01,Rain,Light Rain,280,2013-12-15 05:58:00